Location: Newark
(37.9800°N, 91.3000°W)
Time: 06:42:34
(UTC+00:00)

NOAA 19 - Pass Details

Date: 14 December 2019
Orbit: 840 x 862 km, 99.2° (Epoch: 20 January)

Event Time Altitude Azimuth Distance (km) Brightness Sun altitude
Rises 23:48:05 0° 193° (SSW) 3,418 8.9 -11.8°
Reaches altitude 10° 23:50:45 10° 204° (SSW) 2,488 8.3 -12.3°
Maximum altitude 23:55:29 29° 263° (W) 1,530 7.4 -13.2°
Drops below altitude 10° 00:00:16 10° 323° (NW) 2,506 7.9 -14.1°
Sets 00:02:59 0° 334° (NNW) 3,446 8.5 -14.6°
